This demonstration page uses our WeatherBlox Daily Observations layout. Learn more.

Left ArrowRight Arrow

36.17497, -115.13722

Hourly Observations for November 20, 2021

Temp ( °F °C ) Dew Point ( °F °C ) Humidity (%) Winds ( mph kmh ) Pressure ( in mb ) Visibility ( mi km ) Precip ( " mm )
12:53 am 00:53 Clear 51 10.6 23 -5 33 33 NW 7 11 30.06 1018 10 16 0.00 0.00
1:53 am 01:53 Clear 51 10.6 23 -5 33 33 NW 8 13 30.07 1018 10 16 0.00 0.00
2:53 am 02:53 Clear 53 11.7 21 -6.1 28 28 NW 7 11 30.06 1018 10 16 0.00 0.00
3:53 am 03:53 Clear 50 10 25 -3.9 38 38 W 3 6 30.08 1019 10 16 0.00 0.00
4:53 am 04:53 Clear 49 9.4 24 -4.4 38 38 Calm 30.09 1019 10 16 0.00 0.00
5:53 am 05:53 Clear 48 8.9 24 -4.4 39 39 NNW 5 7 30.11 1020 10 16 0.00 0.00
6:53 am 06:53 Sunny 50 10 22 -5.6 33 33 WNW 13 20 30.13 1020 10 16 0.00 0.00
7:53 am 07:53 Sunny 56 13.3 23 -5 28 28 NNW 6 9 30.15 1021 10 16 0.00 0.00
8:53 am 08:53 Sunny 62 16.7 22 -5.6 21 21 N 8 13 30.16 1021 10 16 0.00 0.00
9:53 am 09:53 Sunny 66 18.9 22 -5.6 19 19 NW 7 11 30.16 1022 10 16 0.00 0.00
10:53 am 10:53 Sunny 69 20.6 22 -5.6 17 17 Calm 30.14 1021 10 16 0.00 0.00
11:53 am 11:53 Sunny 69 20.6 23 -5 17 17 ESE 6 9 30.13 1020 10 16 0.00 0.00
12:53 pm 12:53 Sunny 72 22.2 23 -5 16 16 Calm 30.11 1020 10 16 0.00 0.00
1:53 pm 13:53 Sunny 73 22.8 24 -4.4 16 16 E 5 7 30.10 1019 10 16 0.00 0.00
2:53 pm 14:53 Sunny 72 22.2 24 -4.4 17 17 SSE 9 15 30.10 1019 10 16 0.00 0.00
3:53 pm 15:53 Sunny 72 22.2 24 -4.4 17 17 ENE 5 7 30.12 1020 10 16 0.00 0.00
4:53 pm 16:53 Clear 69 20.6 25 -3.9 19 19 Calm 30.14 1021 10 16 0.00 0.00
5:53 pm 17:53 Clear 65 18.3 26 -3.3 23 23 NW 3 6 30.16 1021 10 16 0.00 0.00
6:53 pm 18:53 Clear 62 16.7 27 -2.8 26 26 WNW 6 9 30.18 1022 10 16 0.00 0.00
7:53 pm 19:53 Clear 63 17.2 29 -1.7 28 28 NNE 10 17 30.21 1023 10 16 0.00 0.00
8:53 pm 20:53 Clear 60 15.6 29 -1.7 31 31 Calm 30.23 1024 10 16 0.00 0.00
9:53 pm 21:53 Clear 62 16.7 29 -1.7 29 29 Calm 30.25 1024 10 16 0.00 0.00
10:53 pm 22:53 Clear 56 13.3 28 -2.2 34 34 VRB 3 6 30.27 1025 10 16 0.00 0.00
11:53 pm 23:53 Clear 60 15.6 23 -5 24 24 N 9 15 30.28 1025 10 16 0.00 0.00

Powered by AerisWeather